• In Hungary
  • List of Countries
  • For 7 days
  • Water Temperature
  • Satellite Maps
  • Weather Map
  • News
  • Weather Widgets
  • user-avatar
    Login

    Hourly Weather Adelkino

    Today, 16 July, Monday

    Time Temperature Precipitation Wind Pressure Humidity
    00:00 +19°C° 0 mm 3 mps 729 mmHg 91%
    01:00 +18°C° 0 mm 3 mps 729 mmHg 92%
    02:00 +18°C° 0 mm 3 mps 729 mmHg 92%
    03:00 +18°C° 0 mm 3 mps 729 mmHg 93%
    04:00 +18°C° 0 mm 3 mps 729 mmHg 94%
    05:00 +19°C° 0.8 mm 3 mps 729 mmHg 93%
    06:00 +20°C° 0.8 mm 3 mps 730 mmHg 91%
    07:00 +20°C° 0.8 mm 4 mps 730 mmHg 90%
    08:00 +22°C° 0.1 mm 4 mps 730 mmHg 86%
    09:00 +23°C° 0.1 mm 4 mps 730 mmHg 81%
    10:00 +25°C° 0.1 mm 4 mps 730 mmHg 77%
    11:00 +26°C° 1.2 mm 4 mps 730 mmHg 76%
    12:00 +26°C° 1.2 mm 4 mps 730 mmHg 74%
    13:00 +26°C° 1.2 mm 4 mps 730 mmHg 72%
    14:00 +27°C° 0.1 mm 4 mps 730 mmHg 71%
    15:00 +27°C° 0.1 mm 4 mps 730 mmHg 69%
    16:00 +27°C° 0.1 mm 4 mps 730 mmHg 68%
    17:00 +27°C° 0 mm 3 mps 730 mmHg 70%
    18:00 +26°C° 0 mm 3 mps 730 mmHg 73%
    19:00 +25°C° 0 mm 2 mps 730 mmHg 76%
    20:00 +24°C° 0 mm 2 mps 730 mmHg 78%
    21:00 +23°C° 0 mm 2 mps 730 mmHg 80%
    22:00 +20°C° 0 mm 2 mps 730 mmHg 82%
    23:00 +20°C° 0 mm 3 mps 729 mmHg 83%

    Tomorrow, 17 July, Tuesday

    Time Temperature Precipitation Wind Pressure Humidity
    00:00 +19°C° 0 mm 3 mps 729 mmHg 84%
    01:00 +19°C° 0 mm 3 mps 729 mmHg 85%
    02:00 +18°C° 0 mm 3 mps 729 mmHg 85%
    03:00 +18°C° 0 mm 3 mps 729 mmHg 84%
    04:00 +17°C° 0 mm 3 mps 729 mmHg 84%
    05:00 +18°C° 0 mm 3 mps 729 mmHg 84%
    06:00 +18°C° 0 mm 4 mps 729 mmHg 83%
    07:00 +19°C° 0 mm 4 mps 730 mmHg 83%
    08:00 +19°C° 0 mm 4 mps 729 mmHg 82%
    09:00 +20°C° 0 mm 4 mps 729 mmHg 81%
    10:00 +20°C° 0 mm 4 mps 729 mmHg 80%
    11:00 +21°C° 0 mm 5 mps 729 mmHg 80%
    12:00 +21°C° 0 mm 5 mps 729 mmHg 80%
    13:00 +22°C° 0 mm 5 mps 729 mmHg 80%
    14:00 +23°C° 0.1 mm 5 mps 729 mmHg 79%
    15:00 +23°C° 0.1 mm 5 mps 729 mmHg 78%
    16:00 +25°C° 0.1 mm 5 mps 729 mmHg 77%
    17:00 +23°C° 1.3 mm 5 mps 728 mmHg 82%
    18:00 +22°C° 1.3 mm 5 mps 728 mmHg 87%
    19:00 +21°C° 1.3 mm 4 mps 728 mmHg 91%
    20:00 +21°C° 2.4 mm 4 mps 728 mmHg 92%
    21:00 +20°C° 2.4 mm 4 mps 728 mmHg 93%
    22:00 +20°C° 2.4 mm 4 mps 727 mmHg 93%
    23:00 +20°C° 0.5 mm 5 mps 727 mmHg 93%

    Day after tomorrow, 18 July, Wednesday

    Time Temperature Precipitation Wind Pressure Humidity
    00:00 +20°C° 0.5 mm 5 mps 727 mmHg 93%
    01:00 +20°C° 0.5 mm 5 mps 727 mmHg 93%
    02:00 +20°C° 0.7 mm 5 mps 727 mmHg 93%
    03:00 +19°C° 0.7 mm 5 mps 727 mmHg 93%
    04:00 +19°C° 0.7 mm 5 mps 727 mmHg 94%
    05:00 +19°C° 1.2 mm 4 mps 727 mmHg 94%
    06:00 +19°C° 1.2 mm 4 mps 727 mmHg 95%
    07:00 +18°C° 1.2 mm 4 mps 727 mmHg 96%
    08:00 +20°C° 0.3 mm 4 mps 727 mmHg 93%
    09:00 +21°C° 0.3 mm 4 mps 727 mmHg 90%
    10:00 +24°C° 0.3 mm 3 mps 727 mmHg 87%
    11:00 +25°C° 0.7 mm 3 mps 727 mmHg 82%
    12:00 +26°C° 0.7 mm 3 mps 727 mmHg 77%
    13:00 +27°C° 0.7 mm 3 mps 727 mmHg 73%
    14:00 +27°C° 0.5 mm 2 mps 728 mmHg 71%
    15:00 +28°C° 0.5 mm 2 mps 728 mmHg 69%
    16:00 +28°C° 0.5 mm 2 mps 728 mmHg 68%
    17:00 +27°C° 0.7 mm 2 mps 728 mmHg 73%
    18:00 +26°C° 0.7 mm 2 mps 728 mmHg 79%
    19:00 +25°C° 0.7 mm 2 mps 728 mmHg 85%
    20:00 +24°C° 0.2 mm 2 mps 728 mmHg 87%
    21:00 +21°C° 0.2 mm 2 mps 728 mmHg 89%
    22:00 +20°C° 0.2 mm 2 mps 728 mmHg 91%
    23:00 +20°C° 0.1 mm 2 mps 728 mmHg 92%

    19 July, Thursday

    Time Temperature Precipitation Wind Pressure Humidity
    00:00 +19°C° 0.1 mm 2 mps 728 mmHg 93%
    01:00 +19°C° 0.1 mm 2 mps 728 mmHg 93%
    02:00 +18°C° 0.2 mm 2 mps 728 mmHg 93%
    03:00 +19°C° 0.2 mm 1 mps 728 mmHg 93%
    04:00 +19°C° 0.2 mm 1 mps 728 mmHg 93%
    05:00 +20°C° 0 mm 1 mps 729 mmHg 90%
    06:00 +21°C° 0 mm 1 mps 729 mmHg 88%
    07:00 +22°C° 0 mm 1 mps 729 mmHg 86%
    08:00 +23°C° 0.4 mm 1 mps 729 mmHg 82%
    09:00 +24°C° 0.4 mm 2 mps 729 mmHg 78%
    10:00 +26°C° 0.4 mm 2 mps 729 mmHg 75%
    11:00 +26°C° 0.4 mm 2 mps 729 mmHg 71%
    12:00 +27°C° 0.4 mm 2 mps 729 mmHg 67%
    13:00 +28°C° 0.4 mm 1 mps 729 mmHg 63%
    14:00 +28°C° 0.1 mm 1 mps 729 mmHg 61%
    15:00 +28°C° 0.1 mm 1 mps 729 mmHg 59%
    16:00 +29°C° 0.1 mm 1 mps 729 mmHg 57%
    17:00 +26°C° 0 mm 0 mps 729 mmHg 61%
    18:00 +26°C° 0 mm 0 mps 729 mmHg 65%
    19:00 +25°C° 0 mm 0 mps 729 mmHg 69%
    20:00 +24°C° 0.1 mm 0 mps 730 mmHg 72%
    21:00 +22°C° 0.1 mm 0 mps 730 mmHg 76%
    22:00 +20°C° 0.1 mm 0 mps 730 mmHg 79%
    23:00 +20°C° 0.2 mm 0 mps 730 mmHg 80%

    20 July, Friday

    Time Temperature Precipitation Wind Pressure Humidity
    00:00 +19°C° 0.2 mm 0 mps 729 mmHg 82%
    01:00 +19°C° 0.2 mm 0 mps 729 mmHg 83%
    02:00 +18°C° 0.1 mm 0 mps 730 mmHg 84%
    03:00 +18°C° 0.1 mm 0 mps 730 mmHg 85%
    04:00 +18°C° 0.1 mm 0 mps 730 mmHg 87%
    05:00 +19°C° 0 mm 0 mps 730 mmHg 85%
    06:00 +20°C° 0 mm 0 mps 730 mmHg 83%
    07:00 +21°C° 0 mm 0 mps 730 mmHg 82%
    08:00 +24°C° 0.6 mm 1 mps 730 mmHg 79%
    09:00 +25°C° 0.6 mm 1 mps 730 mmHg 76%
    10:00 +26°C° 0.6 mm 1 mps 730 mmHg 73%
    11:00 +27°C° 0.8 mm 1 mps 730 mmHg 70%
    12:00 +27°C° 0.8 mm 1 mps 730 mmHg 67%
    13:00 +28°C° 0.8 mm 1 mps 730 mmHg 65%
    14:00 +28°C° 0.4 mm 1 mps 730 mmHg 66%
    15:00 +28°C° 0.4 mm 1 mps 730 mmHg 66%
    16:00 +28°C° 0.4 mm 2 mps 730 mmHg 67%
    17:00 +27°C° 0.2 mm 2 mps 730 mmHg 72%
    18:00 +27°C° 0.2 mm 2 mps 730 mmHg 76%
    19:00 +26°C° 0.2 mm 2 mps 730 mmHg 80%
    20:00 +25°C° 0.5 mm 2 mps 730 mmHg 84%
    21:00 +23°C° 0.5 mm 2 mps 730 mmHg 88%
    22:00 +21°C° 0.5 mm 2 mps 730 mmHg 92%
    23:00 +20°C° 0.2 mm 2 mps 730 mmHg 93%

    21 July, Saturday

    Time Temperature Precipitation Wind Pressure Humidity
    00:00 +20°C° 0.2 mm 2 mps 730 mmHg 94%
    01:00 +19°C° 0.2 mm 2 mps 729 mmHg 95%
    02:00 +19°C° 0.1 mm 2 mps 730 mmHg 95%
    03:00 +18°C° 0.1 mm 2 mps 730 mmHg 95%
    04:00 +19°C° 0.1 mm 1 mps 730 mmHg 96%
    05:00 +19°C° 0.1 mm 2 mps 730 mmHg 94%
    06:00 +19°C° 0.1 mm 3 mps 730 mmHg 93%
    07:00 +20°C° 0.1 mm 3 mps 731 mmHg 92%
    08:00 +21°C° 0.1 mm 4 mps 731 mmHg 88%
    09:00 +22°C° 0.1 mm 4 mps 731 mmHg 84%
    10:00 +25°C° 0.1 mm 5 mps 731 mmHg 80%
    11:00 +25°C° 0.4 mm 5 mps 731 mmHg 78%
    12:00 +26°C° 0.4 mm 5 mps 731 mmHg 75%
    13:00 +26°C° 0.4 mm 5 mps 731 mmHg 73%
    14:00 +26°C° 0.4 mm 5 mps 731 mmHg 73%
    15:00 +26°C° 0.4 mm 5 mps 731 mmHg 73%
    16:00 +26°C° 0.4 mm 5 mps 731 mmHg 73%
    17:00 +25°C° 0.1 mm 4 mps 731 mmHg 76%
    18:00 +25°C° 0.1 mm 4 mps 731 mmHg 79%
    19:00 +23°C° 0.1 mm 4 mps 731 mmHg 81%
    20:00 +22°C° 0 mm 4 mps 732 mmHg 82%
    21:00 +21°C° 0 mm 4 mps 732 mmHg 83%
    22:00 +19°C° 0 mm 4 mps 732 mmHg 84%
    23:00 +19°C° 0 mm 5 mps 732 mmHg 82%
    Show more